[[{"header":{"parameterUnit":"m.s-1","parameterCategory":1,"la1":30.2991,"la2":30.254,"lo1":-89.0895,"lo2":-89.0444,"dy":0.0017,"dx":0.0017,"nx":28,"ny":28,"refTime":"2025-05-24T21:00:00:Z","depth":0,"parameterNumber":2,"parameterNumberName":"U-component_of_WINDS"},"data":[0,0,0,0,0,0,0,0,0,0,0,0,0,0,0,0,0,0,0,0,0,0,0,0,0,0,0,0,0,0,0,0,0,0,0,0,0,0,0,0,0,0,0,0,0,0,0,0,0,0,0,0,0,0,0,0,0,0,-0.7925,-0.7925,0,-0.7855,-0.7854,-0.7853,-0.7813,-0.7813,-0.7813,-0.7812,-0.7739,-0.7737,-0.7735,0,0,0,0,0,0,0,0,0,0,0,0,0,-0.8026,-0.8024,-0.7925,-0.7924,-0.7924,-0.7855,-0.7854,-0.7853,-0.7813,-0.7813,-0.7813,-0.7812,-0.7739,-0.7737,-0.7735,0,0,0,0,0,0,0,0,0,0,0,0,0,-0.7971,-0.8024,-0.7925,-0.7895,-0.7892,-0.7855,-0.7854,-0.7852,-0.7813,-0.7813,-0.7812,-0.7812,-0.774,-0.7737,-0.7735,-0.7722,0,0,-0.7726,-0.7725,0,0,0,0,0,0,0,0,-0.7975,-0.7968,-0.7901,-0.7897,-0.7894,-0.7842,-0.7862,-0.7809,-0.7813,-0.7843,-0.7812,-0.7812,-0.7773,-0.7768,-0.7755,-0.7718,-0.7715,-0.7726,-0.7724,-0.7723,-0.7722,0,0,0,0,0,0,0,-0.7978,-0.7971,-0.7897,-0.79,-0.7895,-0.7885,-0.7877,-0.7852,-0.781,-0.784,-0.7837,-0.7829,-0.7771,-0.7758,-0.7753,-0.7714,-0.7726,-0.7724,-0.7722,-0.7721,-0.7663,-0.7663,0,0,0,0,0,0,-0.7987,-0.7974,-0.7899,-0.7895,-0.7934,-0.7884,-0.7875,-0.7859,-0.781,-0.7803,-0.783,-0.7828,-0.7762,-0.7756,-0.775,-0.7731,-0.7723,-0.7721,-0.7719,-0.7663,-0.7663,-0.7663,0,0,0,0,0,0,-0.7989,-0.7981,-0.7902,-0.7934,-0.7923,-0.7882,-0.7865,-0.7858,-0.7844,-0.7802,-0.7794,-0.7823,-0.7762,-0.7754,-0.7729,-0.7728,-0.7719,-0.7717,-0.7663,-0.7663,-0.7663,-0.7694,0,0,0,0,0,0,-0.7992,-0.7982,-0.7976,-0.7934,-0.7921,-0.7883,-0.7865,-0.7856,-0.7839,-0.7836,-0.7794,-0.7787,-0.7761,-0.7733,-0.7726,-0.7724,-0.7715,-0.7663,-0.7663,-0.7663,-0.7693,-0.7695,-0.7697,0,0,0,0,0,-0.7996,-0.7988,-0.7976,-0.7968,-0.7914,-0.7883,-0.7876,-0.7846,-0.784,-0.7834,-0.7807,-0.7788,-0.773,-0.7731,-0.7723,-0.772,-0.7663,-0.7663,-0.7663,-0.7692,-0.7695,-0.7697,0,0,0,0,0,0,-0.8031,-0.7981,-0.7968,-0.7946,-0.7919,-0.7876,-0.7868,-0.785,-0.7824,-0.7823,-0.7787,-0.7778,-0.7757,-0.7736,-0.7738,-0.7705,-0.7694,-0.7693,-0.7719,-0.7721,-0.7724,-0.7729,-0.7712,0,0,0,0,0,-0.8036,-0.8015,-0.7973,-0.7957,-0.7944,-0.7909,-0.7894,-0.7874,-0.7844,-0.7833,-0.7804,-0.7776,-0.7751,-0.7735,-0.771,-0.769,-0.768,-0.7684,-0.7687,-0.7689,-0.7687,-0.7675,-0.7677,-0.7664,-0.7664,-0.7664,0,0,-0.8046,-0.8016,-0.8005,-0.7963,-0.794,-0.7919,-0.7899,-0.7878,-0.7861,-0.7829,-0.7804,-0.7782,-0.7748,-0.7726,-0.7715,-0.7708,-0.7689,-0.7689,-0.7691,-0.7688,-0.7676,-0.7677,-0.7678,-0.7664,-0.7664,-0.7664,0,0,-0.8053,-0.8029,-0.8013,-0.799,-0.7956,-0.7932,-0.7929,-0.7888,-0.7873,-0.7847,-0.7823,-0.7803,-0.7761,-0.7738,-0.7721,-0.7721,-0.7703,-0.7714,-0.7725,-0.7714,-0.7715,-0.7715,-0.7715,-0.7715,-0.7713,-0.7713,-0.7713,0,-0.807,-0.8037,-0.8007,-0.7987,-0.7969,-0.794,-0.7924,-0.7903,-0.7862,-0.785,-0.7844,-0.7791,-0.7766,-0.7738,-0.7738,-0.7726,-0.772,-0.7718,-0.7717,-0.7718,-0.7718,-0.7717,-0.7717,-0.7715,-0.7715,-0.7715,-0.7714,0,-0.8059,-0.8037,-0.8029,-0.799,-0.7971,-0.7953,-0.7921,-0.7906,-0.7888,-0.7865,-0.784,-0.7809,-0.7777,-0.777,-0.7751,-0.7739,-0.7736,-0.7724,-0.7712,-0.7721,-0.7719,-0.7719,-0.7717,-0.7717,-0.7716,-0.7716,0,0,-0.8085,-0.8031,-0.8028,-0.801,-0.797,-0.7952,-0.7934,-0.7903,-0.7891,-0.7864,-0.7846,-0.7812,-0.7801,-0.7782,-0.7761,-0.7752,-0.7753,-0.7741,-0.7739,-0.7743,-0.7737,-0.7746,-0.7746,-0.7742,-0.7742,-0.7741,-0.774,0,-0.8086,-0.805,-0.8023,-0.7998,-0.7977,-0.7949,-0.7933,-0.7906,-0.7885,-0.7864,-0.784,-0.7817,-0.7804,-0.7792,-0.7781,-0.7755,-0.7751,-0.7755,-0.7725,-0.7724,-0.7733,-0.7745,-0.7754,-0.7754,-0.7739,-0.7739,-0.7739,0,-0.8082,-0.8056,-0.8029,-0.7991,-0.7982,-0.7967,-0.7937,-0.7918,-0.7888,-0.7873,-0.7852,-0.7831,-0.781,-0.7801,-0.7771,-0.7774,-0.776,-0.7746,-0.7745,-0.774,-0.7731,-0.774,-0.7754,-0.7753,-0.7738,-0.7738,-0.7738,0,-0.8103,-0.8062,-0.804,-0.8025,-0.7981,-0.7972,-0.7953,-0.7923,-0.7906,-0.788,-0.7869,-0.7841,-0.7826,-0.7804,-0.7776,-0.7773,-0.7749,-0.7738,-0.7736,-0.7737,-0.7731,-0.7732,-0.7742,-0.7724,-0.7724,-0.7724,-0.7724,0,-0.8106,-0.8091,-0.8048,-0.8035,-0.8016,-0.7986,-0.7968,-0.7947,-0.7921,-0.7903,-0.7878,-0.7861,-0.7826,-0.7805,-0.7783,-0.7761,-0.7755,-0.7742,-0.7736,-0.7743,-0.7745,-0.7733,-0.7732,-0.7724,-0.7724,-0.7724,-0.7724,0,-0.8126,-0.8097,-0.8072,-0.8032,-0.8022,-0.801,-0.7976,-0.7962,-0.794,-0.7918,-0.7911,-0.7876,-0.785,-0.782,-0.7785,-0.777,-0.775,-0.7742,-0.776,-0.7757,-0.7756,-0.7756,-0.7758,-0.7756,-0.7741,-0.7741,-0.7741,0,-0.813,-0.8117,-0.8076,-0.8062,-0.8044,-0.8023,-0.8006,-0.7976,-0.7959,-0.7924,-0.7915,-0.7887,-0.7864,-0.7824,-0.7795,-0.7768,-0.7759,-0.7761,-0.7754,-0.7763,-0.7758,-0.7759,-0.7757,-0.7763,-0.7763,-0.7763,-0.7764,0,-0.8139,-0.8126,-0.8102,-0.8074,-0.8055,-0.8032,-0.8007,-0.7997,-0.7962,-0.7945,-0.7919,-0.7901,-0.7865,-0.7838,-0.7808,-0.7788,-0.777,-0.7766,-0.7764,-0.7771,-0.7782,-0.7776,-0.7765,-0.7766,-0.7766,-0.7766,-0.7766,-0.7765,-0.815,-0.8138,-0.8107,-0.8082,-0.8061,-0.8039,-0.8023,-0.8,-0.7977,-0.7946,-0.793,-0.7904,-0.7874,-0.7832,-0.7813,-0.7792,-0.7786,-0.7783,-0.7782,-0.7781,-0.7783,-0.7787,-0.7787,-0.7786,-0.7786,-0.7786,-0.7786,0,-0.8158,-0.8137,-0.8115,-0.8081,-0.8062,-0.8047,-0.8019,-0.8004,-0.7981,-0.7956,-0.7933,-0.7903,-0.7877,-0.7847,-0.7819,-0.7808,-0.7799,-0.7802,-0.7802,-0.7798,-0.7791,-0.7795,-0.781,-0.781,-0.781,-0.781,-0.781,-0.781,-0.8159,-0.8137,-0.812,-0.8087,-0.8066,-0.8041,-0.8026,-0.8006,-0.7985,-0.7953,-0.7931,-0.7912,-0.7884,-0.7854,-0.783,-0.7822,-0.7812,-0.7817,-0.7807,-0.78,-0.7798,-0.7796,-0.78,-0.7816,-0.7816,-0.7815,-0.7815,-0.7815]},{"header":{"parameterUnit":"m.s-1","parameterCategory":1,"la1":30.2991,"la2":30.254,"lo1":-89.0895,"lo2":-89.0444,"dy":0.0017,"dx":0.0017,"nx":28,"ny":28,"refTime":"2025-05-24T21:00:00:Z","depth":0,"parameterNumber":3,"parameterNumberName":"V-component_of_WINDS"},"data":[0,0,0,0,0,0,0,0,0,0,0,0,0,0,0,0,0,0,0,0,0,0,0,0,0,0,0,0,0,0,0,0,0,0,0,0,0,0,0,0,0,0,0,0,0,0,0,0,0,0,0,0,0,0,0,0,0,0,4.5826,4.5826,0,4.5856,4.5857,4.5857,4.587,4.5869,4.5869,4.5869,4.5897,4.5898,4.5899,0,0,0,0,0,0,0,0,0,0,0,0,0,4.5777,4.5777,4.5826,4.5826,4.5826,4.5856,4.5857,4.5857,4.587,4.5869,4.5869,4.5869,4.5897,4.5898,4.5899,0,0,0,0,0,0,0,0,0,0,0,0,0,4.5801,4.5778,4.5826,4.5836,4.5838,4.5856,4.5857,4.5857,4.587,4.5869,4.5869,4.5869,4.5897,4.5898,4.5899,4.5908,0,0,4.5903,4.5903,0,0,0,0,0,0,0,0,4.58,4.5803,4.5834,4.5836,4.5837,4.5859,4.5849,4.5874,4.587,4.5857,4.5869,4.5869,4.5884,4.5887,4.5892,4.5909,4.591,4.5903,4.5903,4.5904,4.5904,0,0,0,0,0,0,0,4.5798,4.5802,4.5838,4.5835,4.5837,4.5839,4.5843,4.5854,4.5871,4.5858,4.5859,4.5863,4.5885,4.5891,4.5893,4.5911,4.5903,4.5904,4.5904,4.5905,4.5938,4.5938,0,0,0,0,0,0,4.5795,4.5801,4.5837,4.5839,4.5818,4.584,4.5844,4.5852,4.5871,4.5874,4.5863,4.5864,4.5889,4.5892,4.5894,4.5907,4.5904,4.5905,4.5906,4.5938,4.5938,4.5938,0,0,0,0,0,0,4.5794,4.5798,4.5835,4.582,4.5825,4.5841,4.585,4.5853,4.5859,4.5874,4.5877,4.5866,4.5889,4.5892,4.5905,4.5908,4.5906,4.5907,4.5938,4.5938,4.5938,4.5932,0,0,0,0,0,0,4.5793,4.5798,4.5802,4.582,4.5826,4.5846,4.585,4.5853,4.5861,4.5862,4.5878,4.5881,4.5889,4.5903,4.5906,4.591,4.5908,4.5937,4.5938,4.5938,4.5932,4.5932,4.5932,0,0,0,0,0,4.5791,4.5797,4.5802,4.5806,4.5831,4.5846,4.585,4.586,4.5861,4.5865,4.5876,4.588,4.5907,4.5904,4.5908,4.5912,4.5937,4.5938,4.5938,4.5932,4.5932,4.5932,0,0,0,0,0,0,4.5777,4.58,4.5805,4.5818,4.583,4.5849,4.5854,4.586,4.5871,4.5872,4.5884,4.5887,4.5899,4.5906,4.5903,4.5922,4.5923,4.5924,4.5917,4.5917,4.5917,4.5915,4.5908,0,0,0,0,0,4.5776,4.5788,4.5807,4.5816,4.5822,4.5837,4.5844,4.5852,4.5865,4.587,4.5881,4.5892,4.5904,4.5911,4.5922,4.5933,4.5937,4.5938,4.5938,4.5938,4.5938,4.5946,4.5947,4.594,4.594,4.594,0,0,4.5773,4.5787,4.5793,4.5814,4.5824,4.5836,4.5841,4.5852,4.5861,4.5871,4.5884,4.5893,4.5906,4.5919,4.5925,4.5926,4.5942,4.5938,4.5938,4.5939,4.5947,4.5948,4.5948,4.594,4.594,4.594,0,0,4.5774,4.5785,4.5795,4.5806,4.5823,4.5833,4.5836,4.5854,4.586,4.5874,4.5882,4.5892,4.5911,4.5921,4.5929,4.5936,4.5941,4.5939,4.5939,4.5947,4.5947,4.5948,4.5951,4.5952,4.594,4.594,4.594,0,4.5767,4.5786,4.5799,4.5811,4.582,4.5832,4.5842,4.5852,4.5871,4.5877,4.5877,4.5903,4.5913,4.5928,4.5931,4.5936,4.5939,4.5937,4.5946,4.5947,4.5948,4.5951,4.5952,4.5939,4.5939,4.5939,4.5939,0,4.5778,4.5791,4.5797,4.5817,4.5827,4.5838,4.5853,4.5861,4.5868,4.5878,4.5893,4.5905,4.592,4.5924,4.593,4.5941,4.5942,4.5944,4.5945,4.5948,4.5952,4.5953,4.5939,4.5939,4.5939,4.5939,0,0,4.5769,4.5799,4.5801,4.5811,4.5832,4.5842,4.5853,4.5869,4.5877,4.589,4.59,4.5917,4.592,4.5929,4.5936,4.5943,4.5949,4.5945,4.5946,4.5946,4.5963,4.5962,4.5963,4.5953,4.5953,4.5953,4.5963,0,4.5774,4.5797,4.581,4.5827,4.584,4.5852,4.5862,4.5876,4.5886,4.5898,4.5908,4.592,4.5923,4.5929,4.5936,4.5947,4.5953,4.5946,4.5963,4.5963,4.5959,4.5965,4.5963,4.5971,4.5964,4.5964,4.5964,0,4.5781,4.5796,4.5815,4.5837,4.5842,4.5852,4.5868,4.5879,4.5895,4.5902,4.5913,4.5921,4.5934,4.5934,4.5952,4.5948,4.5955,4.5962,4.5962,4.5964,4.5964,4.5967,4.5973,4.5975,4.5966,4.5966,4.5966,0,4.5774,4.5799,4.5815,4.5823,4.5847,4.5854,4.5864,4.588,4.5889,4.5904,4.591,4.5925,4.5933,4.5944,4.5956,4.5955,4.5974,4.5975,4.598,4.598,4.5983,4.5983,4.5991,4.5987,4.5987,4.5987,4.5987,0,4.5777,4.5789,4.5812,4.5822,4.5835,4.585,4.5863,4.5874,4.5889,4.59,4.5911,4.5921,4.5936,4.5948,4.5958,4.5972,4.5975,4.5981,4.5984,4.5981,4.598,4.5986,4.5986,4.5987,4.5987,4.5987,4.5987,0,4.5771,4.5788,4.5805,4.5828,4.5834,4.5843,4.5863,4.5872,4.5884,4.5898,4.5902,4.592,4.5935,4.5949,4.5968,4.5974,4.5989,4.5992,4.5984,4.5986,4.5991,4.599,4.6003,4.6006,4.5999,4.6,4.6,0,4.5773,4.5782,4.5807,4.5817,4.5827,4.5842,4.5853,4.5868,4.5879,4.5899,4.5906,4.5922,4.5936,4.596,4.5974,4.5989,4.5992,4.5996,4.5995,4.5992,4.5994,4.5993,4.5995,4.5996,4.5996,4.5996,4.5996,0,4.5773,4.5782,4.5797,4.5816,4.5829,4.5844,4.5859,4.5866,4.5885,4.5896,4.5913,4.5924,4.5945,4.5961,4.5978,4.5988,4.5995,4.5996,4.5999,4.5996,4.5991,4.5995,4.5985,4.5996,4.5996,4.5996,4.5996,4.5996,4.5771,4.5781,4.5801,4.5819,4.5833,4.5847,4.5858,4.5872,4.5887,4.5907,4.5915,4.5932,4.5949,4.5973,4.5983,4.5997,4.5998,4.6,4.6001,4.6002,4.6002,4.5989,4.6,4.6,4.6,4.6,4.6,0,4.5773,4.5788,4.5804,4.5826,4.584,4.5848,4.5865,4.5876,4.5892,4.5908,4.5922,4.5942,4.5959,4.5975,4.5992,4.6,4.6003,4.6004,4.6003,4.6006,4.6,4.5996,4.6001,4.6001,4.6001,4.6001,4.6001,4.6001,4.5776,4.5794,4.5805,4.583,4.5843,4.5862,4.5872,4.5886,4.5899,4.5921,4.5936,4.5947,4.5963,4.5982,4.5997,4.6002,4.6008,4.6007,4.6012,4.6006,4.6006,4.6006,4.6003,4.6008,4.6008,4.6018,4.6018,4.6018]}]]